EW4560 Weather Reports


Display with metric or nautical units.
time (UTC)temp
F
wind
direction
speed
MPH
gust
MPH
rain 1hr
in
rain 24hr
in
rain mn
in
humidity
%
barometer
mb
20260505064921 47 128 0.0 1.0 0.00 0.14 0.00 92 1012.5
20260505064426 47 126 0.0 1.0 0.00 0.14 0.00 92 1012.5
20260505064420 47 128 0.0 1.0 0.00 0.14 0.00 92 1012.6
20260505063418 47 126 0.0 0.0 0.00 0.14 0.00 92 1012.6
20260505062925 47 126 0.0 1.0 0.00 0.14 0.00 92 1012.6
20260505062918 47 126 0.0 0.0 0.00 0.14 0.00 92 1012.5
20260505061926 47 290 0.0 0.0 0.00 0.14 0.00 92 1012.5
20260505061919 47 126 0.0 1.0 0.00 0.14 0.00 92 1012.5
20260505061536 47 290 0.0 0.0 0.00 0.14 0.00 92 1012.6
20260505060417 47 290 0.0 0.0 0.00 0.14 0.00 91 1012.5
20260505055925 47 290 0.0 0.0 0.00 0.14 0.14 91 1012.8
20260505055918 47 290 0.0 0.0 0.00 0.14 0.14 91 1012.6
20260505055417 47 291 0.0 0.0 0.00 0.14 0.14 91 1012.8
20260505054416 46 309 0.0 0.0 0.00 0.14 0.14 91 1013.0
20260505053917 46 309 0.0 0.0 0.00 0.14 0.14 91 1012.9
20260505053417 46 309 0.0 0.0 0.00 0.14 0.14 91 1012.5
20260505052923 46 309 0.0 0.0 0.00 0.14 0.14 90 1012.8
20260505052917 46 310 0.0 0.0 0.00 0.14 0.14 90 1012.6
20260505051918 46 310 0.0 0.0 0.01 0.14 0.14 90 1012.6
20260505051416 47 310 0.0 0.0 0.01 0.14 0.14 90 1012.8
20260505050917 47 310 0.0 0.0 0.01 0.14 0.14 90 1012.9
20260505050421 47 310 0.0 0.0 0.02 0.14 0.14 89 1013.0
20260505050415 47 310 0.0 0.0 0.02 0.14 0.14 90 1013.1
20260505041411 47 308 0.0 3.0 0.10 0.13 0.13 87 1013.2
20260505040911 48 304 1.0 3.0 0.11 0.13 0.13 87 1013.4
20260505040409 48 297 1.0 5.0 0.10 0.12 0.12 86 1013.5
20260505035909 48 326 1.0 7.0 0.10 0.12 0.12 85 1013.2
20260505035409 48 302 1.0 7.0 0.09 0.11 0.11 85 1013.2
20260505034909 48 353 0.0 6.0 0.08 0.10 0.10 86 1013.1
20260505034407 49 330 0.0 4.0 0.08 0.10 0.10 85 1013.2
20260505033913 49 271 0.0 2.0 0.06 0.08 0.08 83 1013.1
20260505033906 49 1 0.0 4.0 0.07 0.09 0.09 84 1013.1
20260505032907 49 323 0.0 3.0 0.05 0.07 0.07 81 1013.1
20260505032406 50 303 1.0 3.0 0.04 0.06 0.06 80 1013.1
20260505031906 50 342 2.0 6.0 0.03 0.05 0.05 78 1012.9
20260505031406 51 342 2.0 6.0 0.01 0.03 0.04 74 1012.8
20260505030907 53 309 0.0 6.0 0.00 0.02 0.02 68 1012.6
20260505030406 53 312 1.0 6.0 0.00 0.02 0.02 66 1012.5
20260505025908 53 356 0.0 2.0 0.00 0.02 0.02 66 1012.4
20260505025406 53 303 0.0 1.0 0.00 0.02 0.02 66 1011.9
20260505024906 53 95 0.0 0.0 0.00 0.02 0.02 66 1011.8
20260505024406 53 95 0.0 0.0 0.00 0.02 0.02 67 1011.8
20260505023906 53 96 0.0 0.0 0.00 0.02 0.02 69 1011.7
20260505023406 53 96 0.0 0.0 0.00 0.02 0.02 69 1011.7
20260505022907 52 95 0.0 0.0 0.00 0.02 0.02 69 1011.5
20260505022407 52 95 0.0 0.0 0.00 0.02 0.02 69 1011.3
20260505021913 53 95 0.0 0.0 0.00 0.02 0.02 66 1011.3
20260505021906 53 95 0.0 0.0 0.00 0.02 0.02 68 1011.3
20260505020911 53 95 0.0 0.0 0.00 0.02 0.02 67 1011.5
20260505020904 53 95 0.0 0.0 0.00 0.02 0.02 66 1011.2
20260505015904 53 95 0.0 0.0 0.00 0.02 0.02 65 1011.3
20260505015403 53 95 0.0 0.0 0.00 0.02 0.02 64 1011.3
20260505014905 53 95 0.0 0.0 0.00 0.02 0.02 63 1011.3
20260505014404 53 96 0.0 0.0 0.01 0.02 0.02 64 1011.3
20260505013903 53 96 0.0 1.0 0.01 0.02 0.02 64 1011.0
20260505013411 54 96 0.0 1.0 0.01 0.02 0.02 62 1011.0
20260505013404 54 96 0.0 1.0 0.01 0.02 0.02 62 1010.9
20260505012411 54 99 1.0 3.0 0.01 0.02 0.02 61 1011.2
20260505012404 54 96 0.0 2.0 0.01 0.02 0.02 61 1011.2
20260505011403 54 352 1.0 4.0 0.01 0.02 0.02 61 1011.0
20260505010901 55 21 1.0 4.0 0.01 0.02 0.02 62 1011.1
20260505010403 55 295 1.0 4.0 0.01 0.02 0.02 62 1011.0
20260505005901 55 345 1.0 4.0 0.01 0.02 0.02 62 1011.0
20260505005401 55 38 1.0 4.0 0.01 0.02 0.02 63 1011.0
20260505004900 55 328 3.0 8.0 0.01 0.02 0.02 63 1011.1
20260505004401 55 328 3.0 8.0 0.00 0.01 0.01 61 1011.3
20260505003900 55 341 4.0 11.0 0.00 0.01 0.01 61 1011.2
20260505003401 55 314 3.0 11.0 0.00 0.01 0.01 60 1011.2
20260505002905 56 296 6.0 15.0 0.00 0.01 0.01 54 1011.2
20260505002901 56 285 4.0 11.0 0.00 0.01 0.01 58 1011.3
20260505001904 59 319 4.0 13.0 0.00 0.01 0.01 44 1010.9
20260505001857 58 302 6.0 15.0 0.00 0.01 0.01 50 1011.1
20260505000858 59 307 2.0 9.0 0.00 0.01 0.01 44 1011.0
20260505000358 59 359 2.0 6.0 0.00 0.01 0.01 44 1010.7
20260504235858 59 295 2.0 8.0 0.00 0.01 0.01 44 1010.5
20260504235358 59 319 3.0 8.0 0.00 0.01 0.01 44 1010.4
20260504234857 59 307 4.0 15.0 0.00 0.01 0.01 43 1010.2
20260504234359 59 330 4.0 15.0 0.00 0.01 0.01 43 1009.9
20260504233913 61 356 4.0 13.0 0.00 0.01 0.01 38 1009.3
20260504233858 60 342 4.0 10.0 0.00 0.01 0.01 42 1009.7
20260504233358 60 302 4.0 12.0 0.00 0.01 0.01 42 1009.7
20260504232857 60 339 4.0 12.0 0.00 0.01 0.01 41 1009.7
20260504232359 61 74 4.0 13.0 0.00 0.01 0.01 40 1009.6
20260504231402 61 333 5.0 14.0 0.00 0.01 0.01 37 1009.4
20260504231356 61 19 5.0 13.0 0.00 0.01 0.01 37 1009.4
20260504230855 62 344 5.0 14.0 0.00 0.01 0.01 36 1009.3
20260504230514 62 313 5.0 19.0 0.00 0.01 0.01 36 1009.0
20260504225352 62 301 5.0 19.0 0.00 0.01 0.01 36 1008.9
20260504224852 62 333 5.0 13.0 0.00 0.01 0.01 35 1008.9
20260504224351 62 353 5.0 16.0 0.00 0.01 0.01 36 1009.0
20260504223851 62 29 4.0 16.0 0.00 0.01 0.01 35 1009.0
20260504223353 63 308 4.0 12.0 0.00 0.01 0.01 34 1009.1
20260504222851 63 339 5.0 12.0 0.00 0.01 0.01 33 1009.1
20260504222350 63 17 5.0 11.0 0.00 0.01 0.01 32 1009.2
20260504221850 64 50 6.0 13.0 0.00 0.01 0.01 31 1009.2
20260504221349 65 10 5.0 13.0 0.00 0.01 0.01 30 1009.1
20260504220850 67 41 4.0 13.0 0.00 0.01 0.01 27 1008.7
20260504220350 67 46 3.0 9.0 0.00 0.01 0.01 24 1008.5
20260504215850 67 41 3.0 8.0 0.00 0.01 0.01 24 1008.5
20260504215351 68 65 2.0 8.0 0.00 0.01 0.01 24 1008.4
20260504214850 68 342 1.0 5.0 0.00 0.01 0.01 24 1008.5
20260504214347 68 30 2.0 4.0 0.00 0.01 0.01 24 1008.6
20260504213846 68 47 2.0 5.0 0.00 0.01 0.01 25 1008.6
20260504213346 68 53 2.0 7.0 0.00 0.01 0.01 25 1008.5
20260504212846 69 18 2.0 7.0 0.00 0.01 0.01 25 1008.6
20260504212345 69 39 2.0 6.0 0.00 0.01 0.01 25 1008.7
20260504211846 69 335 3.0 8.0 0.00 0.01 0.01 25 1008.7
20260504211346 68 338 3.0 8.0 0.00 0.01 0.01 26 1008.9
20260504210846 68 1 3.0 11.0 0.00 0.01 0.01 26 1008.9
20260504210346 68 340 4.0 11.0 0.00 0.01 0.01 27 1009.0
20260504205845 68 300 4.0 8.0 0.00 0.01 0.01 27 1009.1
20260504205345 68 46 4.0 10.0 0.00 0.01 0.01 27 1009.1
20260504204843 68 337 5.0 12.0 0.00 0.01 0.01 27 1009.1
20260504204504 67 294 5.0 11.0 0.00 0.01 0.01 27 1009.3
20260504204350 68 326 5.0 11.0 0.00 0.01 0.01 26 1009.3
20260504204343 68 309 5.0 12.0 0.00 0.01 0.01 27 1009.3
20260504204124 67 17 6.0 12.0 0.00 0.01 0.01 28 1009.6
20260504202344 67 28 5.0 12.0 0.00 0.01 0.01 28 1009.7
20260504201843 67 300 5.0 13.0 0.00 0.01 0.01 28 1009.8
20260504201344 67 331 5.0 13.0 0.00 0.01 0.01 27 1009.8
20260504200843 67 336 5.0 12.0 0.00 0.01 0.01 27 1009.7
20260504200344 67 337 4.0 10.0 0.00 0.01 0.01 28 1009.8
20260504195843 67 341 4.0 10.0 0.00 0.01 0.01 28 1009.8
20260504195343 68 37 5.0 11.0 0.00 0.01 0.01 26 1009.8
20260504194841 69 72 5.0 11.0 0.00 0.01 0.01 27 1009.8
20260504194342 69 329 5.0 14.0 0.00 0.01 0.01 27 1009.8
20260504193843 68 314 5.0 14.0 0.00 0.01 0.01 28 1009.8
20260504193342 68 299 6.0 12.0 0.00 0.01 0.01 27 1009.6
20260504192842 68 331 6.0 14.0 0.00 0.01 0.01 27 1009.7
20260504192341 68 354 5.0 14.0 0.00 0.01 0.01 27 1009.6
20260504191842 67 354 5.0 12.0 0.00 0.01 0.01 28 1009.6
20260504191348 65 299 5.0 9.0 0.00 0.01 0.01 33 1009.6
20260504191342 66 290 5.0 10.0 0.00 0.01 0.01 30 1009.4
20260504190337 64 353 5.0 11.0 0.00 0.01 0.01 33 1009.6
20260504185838 64 32 5.0 11.0 0.00 0.01 0.01 32 1009.8
20260504185337 63 43 4.0 11.0 0.00 0.01 0.01 33 1009.8
20260504184840 63 342 1.0 7.0 0.01 0.01 0.01 32 1009.9
20260504184834 63 309 3.0 11.0 0.00 0.01 0.01 31 1009.8
20260504183838 63 350 1.0 7.0 0.01 0.01 0.01 34 1010.3
20260504183834 63 355 1.0 5.0 0.01 0.01 0.01 35 1010.3
20260504182833 64 168 2.0 7.0 0.01 0.01 0.01 31 1010.3
20260504182337 64 172 4.0 9.0 0.01 0.01 0.01 29 1010.4
20260504182332 65 162 5.0 11.0 0.01 0.01 0.01 27 1010.2
20260504181331 65 87 4.0 11.0 0.01 0.01 0.01 25 1009.8
20260504180833 65 73 4.0 11.0 0.01 0.01 0.01 25 1009.7
20260504180330 65 32 3.0 10.0 0.01 0.01 0.01 23 1009.8
20260504175831 65 42 2.0 5.0 0.01 0.01 0.01 28 1009.6
20260504175331 65 107 2.0 6.0 0.01 0.01 0.01 28 1009.6
20260504174828 66 146 2.0 6.0 0.01 0.01 0.01 29 1009.6
20260504174327 68 32 2.0 6.0 0.00 0.00 0.00 28 1009.7
20260504173835 69 6 1.0 4.0 0.00 0.00 0.00 21 1009.6
20260504173828 69 7 2.0 6.0 0.00 0.00 0.00 23 1009.6
20260504172825 69 301 2.0 6.0 0.00 0.00 0.00 21 1009.7
20260504172326 70 4 3.0 6.0 0.00 0.00 0.00 21 1009.7
20260504171826 71 338 3.0 6.0 0.00 0.00 0.00 20 1009.7
20260504171325 71 58 2.0 6.0 0.00 0.00 0.00 20 1009.8
20260504170825 71 343 2.0 5.0 0.00 0.00 0.00 21 1009.8
20260504170325 71 30 2.0 5.0 0.00 0.00 0.00 21 1009.9
20260504160321 69 238 1.0 5.0 0.00 0.00 0.00 24 1010.5
20260504150320 61 121 0.0 1.0 0.00 0.00 0.00 30 1011.2
20260504140435 50 51 0.0 0.0 0.00 0.00 0.00 50 1011.3
20260504130816 46 15 0.0 0.0 0.00 0.00 0.00 53 1010.9
20260504130810 46 16 0.0 0.0 0.00 0.00 0.00 54 1011.0
20260504130435 45 18 0.0 0.0 0.00 0.00 0.00 55 1010.9
20260504130431 46 16 0.0 0.0 0.00 0.00 0.00 53 1010.9
20260504120313 45 16 0.0 0.0 0.00 0.00 0.00 51 1010.6
20260504120305 45 16 0.0 0.0 0.00 0.00 0.00 51 1010.7
20260504110256 44 39 0.0 0.0 0.00 0.00 0.00 51 1011.0
20260504081739 49 39 0.0 0.0 0.00 0.00 0.00 44 1012.2
20260504081245 51 39 0.0 0.0 0.00 0.00 0.00 42 1012.2
20260504081238 50 39 0.0 0.0 0.00 0.00 0.00 43 1012.0
20260504080240 51 39 0.0 0.0 0.00 0.00 0.00 42 1012.3
20260504070356 54 27 0.0 2.0 0.00 0.00 0.00 39 1012.3